Weather in Amosovka

Russia / Kursk Oblast     51°30′46″N   36°11′14″E
temp.,
°C
wind,
m/s
gust,
m/s
humid.,
%
clouds,
%
prec.,
mm/h
press.,
hPa
HPBL,
m
27 july, tue
tue2700:00+19e22525 0.0 102213
03:00+17e22585 0.0 102216
06:00+17se22645 0.0 102212
09:00+24ssw22465 0.0 1021349
12:00+28wsw22375 0.0 10211728
15:00+29nw223124 0.0 10192854
18:00+28n223953 0.0 1019494
21:00+22ese224959 0.0 101915
28 july, wed
wed2800:00+19ssw22515 0.0 101917
03:00+19s345048 0.0 101846
06:00+18s365683 0.0 101796
09:00+23s5846100 0.0 1017341
12:00+25ssw4844100 0.0 1016610
15:00+23w0159100 0.1 101549
18:00+22se366328 0.1 1013150
21:00+18sse4889100 2.3 1012146
29 july, thu
thu2900:00+17ssw378891 0.8 1012107
03:00+18w34901 0.8 101159
06:00+18wsw229041 0.0 101136
09:00+23wsw347293 0.1 1011345
12:00+28w454555 0.9 10111524
15:00+30wnw56396 0.9 10102417
18:00+29nw35465 0.0 10091257
21:00+22w347271 0.3 101066
30 july, fri
fri3000:00+19ssw4787100 0.9 1010106
03:00+18wsw019324 1.4 100911
06:00+18w119384 0.0 101037
09:00+22wnw2380100 0.0 1010467
12:00+27wnw445914 0.0 10091219
15:00+29wnw45490 0.0 10091724
18:00+27wnw45534 0.0 10081601
21:00+22n116782 0.0 100911
31 july, sat
sat3100:00+23wnw22531 0.0 100941
03:00+19wnw22671 0.0 100911
06:00+19wsw22665 0.0 101018
09:00+25sw234926 0.0 1010378
12:00+29wsw34375 0.0 10101903
15:00+31wsw563599 0.0 10092807
18:00+29wsw45436 0.0 10091529
21:00+23wnw226187 0.0 100915